Terminal Aerodrome Forecast
Issued by NWS

Home | Current Version | Previous Version | Text Only | Print | Product List | Glossary Off
Versions: 1 2 3 4 5 6 7 8 9 10 11 12 13 14 15 16 17 18 19 20

000
FTUS43 KMPX 292100 AAA
TAFRWF
TAF AMD
KRWF 292104Z 2921/3018 07008KT P6SM SCT022 BKN035
     FM300400 10006KT P6SM SCT012 SCT025
     FM300900 11007KT 5SM BR OVC008
     FM301400 13011KT P6SM SCT020 OVC090=

USA.gov is the U.S. government's official web portal to all federal, state and local government web resources and services.